Other Public Products
Issued by NWS Charleston, SC

Current Version | Previous Version | Graphics & Text | Print | Product List | Glossary On
Versions: 1 2 3 4 5 6 7 8 9 10 11 12 13 14 15 16 17 18 19 20 21 22 23 24 25 26 27 28 29 30 31 32 33 34 35 36 37 38 39 40 41 42 43 44 45 46 47 48 49 50
000
FPUS82 KCHS 221327
OPUCHS

TEST...KCHS/KSAV Gateway Observations...TEST
National Weather Service Charleston SC
900 AM EDT SUN OCT 22 2017

NOTE: "fair" indicates few or no clouds below 12,000 feet with no
significant weather and/or obstructions to visibility.

SCZ050-WAZ558-NCZ071-TXZ119-213-PAZ071-DCZ001-FLZ074-172-MI076-
NYZ176-178-MAZ016-IL014-TNZ027-NJZ106-GAZ044-MD014-221400-

...Gateway Observations for Charleston International...

CITY           SKY/WX    TMP DP  RH WIND       PRES   REMARKS
Chas Airport   CLOUDY    70  67  90 E8        30.28R
Seattle        PTCLDY    54  49  83 S13G22    29.91R
Charlotte      MOSUNNY   60  58  92 N3        30.35R
Dallas DFW     CLOUDY    64  61  90 N9        30.08R
Dallas Love    CLOUDY    63  60  90 N9        30.09R
Philladelphia  PTSUNNY   54  53  97 CALM      30.43R
Wash National  PTSUNNY   57  53  86 CALM      30.41R
Baltimore      MOSUNNY   54  50  86 CALM      30.40R
Miami          CLOUDY    84  74  71 E14G23    30.09R HX  91
Detroit        MOSUNNY   59  54  83 SE6       30.18R
Newark         PTSUNNY   57  49  74 CALM      30.42R
Laguardia      PTSUNNY   63  54  72 CALM      30.41R
J F K          PTSUNNY   60  55  83 CALM      30.42R
Boston Logan   PTSUNNY   63  47  55 CALM      30.41R
Ft. Lauderdale PTSUNNY   83  73  72 SE20      30.09R
Chicago O`Hare CLOUDY    66  56  70 S14       29.94R
Chicago Midway MOCLDY    66  56  70 S14G23    29.95R
Houston Bush   TSTM      63  62  97 N22G29    30.09  VSB 1/2
Houston Hobby  PTCLDY    76  73  91 CALM      30.00R
Nashville      PTSUNNY   65  55  70 SE12      30.15R
Atlanta        PTSUNNY   62  60  93 E10       30.27R

$$

GAZ044-118-TXZ119-213-NCZ071-DCZ001-MDZ014-506-PAZ021-071-NJZ106-
NYZ176-178-MAZ106-OHZ011-021-055-MIZ076-KYZ091-ILZ014-INZ047-
MNZ060-ONZ431-221400-

...Gateway Observations for Savannah International...

CITY           SKY/WX    TMP DP  RH WIND       PRES   REMARKS
Savannah Arpt  PTSUNNY   70  67  90 NE8       30.25R
Atlanta        PTSUNNY   62  60  93 E10       30.27R
Charlotte      MOSUNNY   60  58  92 N3        30.35R
Dallas DFW     CLOUDY    64  61  90 N9        30.08R
Houston Bush   TSTM      63  62  97 N22G29    30.09  VSB 1/2
Wash National  PTSUNNY   57  53  86 CALM      30.41R
Wash Dulles    MOSUNNY   54  50  86 CALM      30.40R
Baltimore      MOSUNNY   54  50  86 CALM      30.40R
Philadelphia   PTSUNNY   54  53  97 CALM      30.43R
Newark         PTSUNNY   57  49  74 CALM      30.42R
Laguardia      PTSUNNY   63  54  72 CALM      30.41R
J F K          PTSUNNY   60  55  83 CALM      30.42R
Boston         PTSUNNY   63  47  55 CALM      30.41R
Pittsburg      PTSUNNY   54  52  93 CALM      30.30R
Akron          MOSUNNY   56  49  77 S6        30.26S
Cleveland      PTSUNNY   59  52  77 S10       30.25R
Cincinnati     PTSUNNY   57  50  77 S8        30.20R
Columbus       SUNNY     56  52  88 SE6       30.24R
Detroit        MOSUNNY   59  54  83 SE6       30.18R
Chicago O`Hare CLOUDY    66  56  70 S14       29.94R
Minneapolis    CLOUDY    48  43  82 W8        29.96R
Indianapolis   CLOUDY    58  51  78 SE10      30.11S
Toronto Canada MOSUNNY   54  52  94 CALM      30.25R

$$




USA.gov is the U.S. government's official web portal to all federal, state and local government web resources and services.